Location: Mahannah Oil Field
(37.4664°N, 96.6003°W)
Time: 06:19:10
(UTC+00:00)

Transit 2A Rocket - Pass Details

Date: 27 January 2021
Orbit: 594 x 909 km, 66.7° (Epoch: 03 March)

Event Time Altitude Azimuth Distance (km) Brightness Sun altitude
Rises 18:50:26 0° 247° (WSW) 3,328 8.6 34.2°
Reaches altitude 10° 18:53:38 10° 264° (W) 2,338 7.7 34.2°
Maximum altitude 18:57:23 19° 309° (NW) 1,728 6.7 34.1°
Drops below altitude 10° 19:00:56 10° 355° (N) 2,195 7.0 34.1°
Sets 19:03:50 0° 13° (NNE) 3,055 7.6 34.0°
